EW3889 Weather Reports


Display with metric or nautical units.
time (UTC)temp
F
wind
direction
speed
MPH
gust
MPH
rain 1hr
in
rain 24hr
in
rain mn
in
humidity
%
barometer
mb
20181021181925 78 280 0.0 5.0 0.00 0.00 0.35 82 1010.4
20181021174924 79 39 0.0 0.0 0.00 0.00 0.29 84 1010.6
20181021171924 78 39 0.0 0.0 0.00 0.00 0.29 82 1011.1
20181021164924 81 37 5.0 11.0 0.00 0.00 0.21 76 1011.8
20181021161924 82 143 0.0 1.0 0.00 0.00 0.01 74 1012.2
20181021154924 81 210 0.0 1.0 0.00 0.00 0.01 75 1012.7
20181021151924 79 210 0.0 1.0 0.00 0.00 0.01 78 1012.9
20181021144924 79 211 0.0 1.0 0.00 0.00 0.01 81 1013.3
20181021141924 78 198 0.0 0.0 0.00 0.00 0.01 82 1013.1
20181021134924 79 199 1.0 5.0 0.00 0.00 0.00 79 1013.1
20181021131924 77 193 0.0 1.0 0.00 0.00 0.00 82 1012.7
20181021124924 76 195 0.0 1.0 0.00 0.00 0.00 84 1012.7
20181021121924 75 297 0.0 3.0 0.00 0.00 0.00 85 1012.0
20181021114924 74 359 0.0 0.0 0.00 0.00 0.00 85 1011.4
20181021111924 74 359 0.0 1.0 0.00 0.00 0.00 84 1011.1
20181021104923 74 359 0.0 0.0 0.00 0.00 0.00 82 1010.7
20181021101924 75 310 0.0 5.0 0.00 0.00 0.00 80 1010.2
20181021094924 74 283 4.0 7.0 0.00 0.00 0.00 81 1010.0
20181021091923 74 58 0.0 6.0 0.00 0.00 0.00 84 1009.8
20181021084923 73 139 5.0 8.0 0.00 0.00 0.00 85 1009.4
20181021081923 73 104 0.0 2.0 0.00 0.00 0.00 85 1009.2
20181021074923 73 103 0.0 4.0 0.00 0.00 0.00 86 1009.5
20181021071923 74 106 0.0 0.0 0.00 0.00 0.00 85 1009.8
20181021064923 74 106 0.0 0.0 0.00 0.00 0.00 86 1010.1
20181021061923 74 107 0.0 0.0 0.00 0.00 0.00 85 1010.4